Glendale Luke AFB, AZ

8:23 AM MST on December 11, 2019 (GMT -0700)
Luke Air Force Base

Weather History for KLUF - August, 2019

Change the Weather History Date:

Friday, August 16, 2019

  Actual Average Record
Temperature  
Mean Temperature 94 °F -  
Max Temperature 107 °F 104 °F 113 °F (1933)
Min Temperature 80 °F 72 °F 58 °F (1932)
Cooling Degree Days 28    
Growing Degree Days 44 (Base 50)    
Moisture  
Dew Point 48 °F    
Average Humidity 19    
Maximum Humidity 32    
Minimum Humidity 14    
Precipitation  
Precipitation 0.00 in - - ()
Sea Level Pressure  
Sea Level Pressure 29.74 in    
Wind  
Wind Speed 7 mph (WSW)    
Max Wind Speed 16 mph    
Max Gust Speed 21 mph    
Visibility 10 miles    
Events      
Averages and records for this station are not official NWS values.
T = Trace of Precipitation, MM = Missing Value Source: NWS Daily Summary

Daily Weather History Graph

Daily Weather History Graph

Search for Another Location

Airport or City:

Astronomy

Aug. 16, 2019 Rise Set
Actual Time 5:52 AM MST 7:14 PM MST
Civil Twilight 5:26 AM MST 7:40 PM MST
Nautical Twilight 4:54 AM MST 8:12 PM MST
Astronomical Twilight 4:22 AM MST 8:44 PM MST
Moon 8:18 PM MST (8/16) 6:47 AM MST (8/16)
Length of Visible Light 14h 14m
Length of Day
13h 22m
Full, 99% of the Moon is Illuminated
Aug 16
Full
Aug 23
Last Quarter
Aug 30
New
Sep 5
First Quarter
Sep 13
Full

Hourly Weather History & Observations

Time (MST) Temp. Heat Index Dew Point Humidity Pressure Visibility Wind Dir Wind Speed Gust Speed Precip Events Conditions
12:58 AM 87.6 °F - 41.5 °F 20% 29.72 in 10.0 mi North 6.9 mph - N/A   Clear
1:58 AM 90.3 °F - 34.7 °F 14% 29.73 in 10.0 mi North 3.5 mph - N/A   Clear
2:58 AM 86.2 °F - 36.1 °F 17% 29.74 in 10.0 mi Calm Calm - N/A   Clear
3:58 AM 87.3 °F - 35.6 °F 16% 29.75 in 10.0 mi Calm Calm - N/A   Clear
4:58 AM 84.6 °F - 39.0 °F 20% 29.75 in 10.0 mi Calm Calm - N/A   Clear
5:58 AM 80.6 °F - 39.4 °F 23% 29.78 in 10.0 mi NW 5.8 mph - N/A   Clear
6:58 AM 84.0 °F - 39.9 °F 21% 29.81 in 10.0 mi Calm Calm - N/A   Clear
7:58 AM 89.1 °F - 39.9 °F 18% 29.84 in 10.0 mi Calm Calm - N/A   Clear
8:58 AM 95.0 °F - 40.1 °F 15% 29.84 in 10.0 mi SW 3.5 mph - N/A   Clear
9:58 AM 98.6 °F - 50.5 °F 20% 29.84 in 10.0 mi SSW 12.7 mph - N/A   Clear
10:58 AM 100.2 °F - 50.5 °F 19% 29.83 in 10.0 mi WSW 10.4 mph - N/A   Clear
11:58 AM 102.2 °F - 50.5 °F 18% 29.81 in 10.0 mi SSW 16.1 mph 19.6 mph N/A   Partly Cloudy
12:58 PM 104.2 °F - 52.2 °F 18% 29.78 in 10.0 mi SW 6.9 mph - N/A   Partly Cloudy
1:58 PM 105.4 °F 103.8 °F 53.2 °F 18% 29.75 in 10.0 mi West 9.2 mph - N/A   Partly Cloudy
2:48 PM 107.6 °F 106.1 °F 53.6 °F 17% 29.72 in 10.0 mi WSW 13.8 mph 18.4 mph N/A   Clear
2:58 PM 106.7 °F 105.5 °F 54.1 °F 18% 29.71 in 10.0 mi SSW 15.0 mph - N/A   Clear
3:58 PM 107.8 °F 107.0 °F 55.0 °F 18% 29.69 in 10.0 mi SW 9.2 mph 20.7 mph N/A   Clear
4:58 PM 107.6 °F 106.8 °F 54.9 °F 18% 29.67 in 10.0 mi SW 15.0 mph - N/A   Clear
5:31 PM 107.6 °F 106.8 °F 55.4 °F 18% 29.65 in 10.0 mi WSW 13.8 mph 19.6 mph N/A   Clear
5:58 PM 106.7 °F 105.5 °F 54.1 °F 18% 29.65 in 10.0 mi SW 9.2 mph - N/A   Clear
6:58 PM 105.3 °F 103.5 °F 53.1 °F 18% 29.65 in 10.0 mi WSW 11.5 mph - N/A   Clear
7:58 PM 102.0 °F - 50.4 °F 18% 29.65 in 10.0 mi West 8.1 mph - N/A   Clear
8:58 PM 98.8 °F - 52.0 °F 21% 29.68 in 10.0 mi WSW 6.9 mph - N/A   Clear
9:58 PM 97.2 °F - 49.3 °F 20% 29.69 in 10.0 mi SW 10.4 mph - N/A   Clear
10:58 PM 94.3 °F 92.1 °F 54.1 °F 26% 29.71 in 10.0 mi SW 9.2 mph - N/A   Clear
11:58 PM 93.2 °F 92.6 °F 58.8 °F 32% 29.71 in 10.0 mi WSW 16.1 mph - N/A   Clear